QFA444 YMML-YSSY

Flight info

Callsign QFA444
Flight time N/A
Altitude 39000
Route ML H129 DOSEL Y59 RIVET
Aircraft A332/H-SDE3GHIJ2J3J5M1RVWXY/LB2D1

Departure

Time 2026-05-05 05:05
Airport Melbourne Airport (YMML)

Arrival

Time N/A
Airport Sydney Kingsford Smith International Airport (YSSY)
Time Latitude Longitude Altitude Speed Heading
2026-05-05 04:53 -37.66630 144.84895 407 ft 0 kts 168°
2026-05-05 04:58 -37.66629 144.84894 407 ft 2 kts 168°
2026-05-05 04:58 -37.66604 144.84889 405 ft 4 kts 163°
2026-05-05 04:59 -37.66585 144.84878 406 ft 5 kts 154°
2026-05-05 04:59 -37.66561 144.84871 409 ft 4 kts 199°
2026-05-05 04:59 -37.66544 144.84889 406 ft 4 kts 254°
2026-05-05 04:59 -37.66542 144.84899 408 ft 1 kts 261°
2026-05-05 05:02 -37.66543 144.84895 410 ft 3 kts 261°
2026-05-05 05:02 -37.66548 144.84848 406 ft 7 kts 261°
2026-05-05 05:02 -37.66532 144.84796 410 ft 6 kts 321°
2026-05-05 05:03 -37.66486 144.84777 410 ft 9 kts 344°
2026-05-05 05:03 -37.66426 144.84777 412 ft 8 kts
2026-05-05 05:03 -37.66365 144.84784 410 ft 10 kts
2026-05-05 05:03 -37.66284 144.84792 408 ft 13 kts
2026-05-05 05:04 -37.66230 144.84779 412 ft 4 kts 304°
2026-05-05 05:04 -37.66221 144.84695 411 ft 19 kts 274°
2026-05-05 05:04 -37.66193 144.84231 410 ft 87 kts 274°
2026-05-05 05:04 -37.66131 144.83215 463 ft 140 kts 274°
2026-05-05 05:05 -37.66032 144.81965 1082 ft 144 kts 274°
2026-05-05 05:05 -37.65953 144.80701 1805 ft 149 kts 271°
2026-05-05 05:05 -37.65885 144.79264 2076 ft 182 kts 271°
2026-05-05 05:05 -37.65810 144.77506 2262 ft 220 kts 271°
2026-05-05 05:06 -37.65709 144.75459 2603 ft 250 kts 272°
2026-05-05 05:06 -37.65582 144.73232 3460 ft 256 kts 273°
2026-05-05 05:06 -37.65440 144.71023 4700 ft 251 kts 273°
2026-05-05 05:06 -37.65269 144.68830 5753 ft 255 kts 278°
2026-05-05 05:07 -37.64660 144.66695 6726 ft 264 kts 300°
2026-05-05 05:07 -37.63353 144.65047 7717 ft 274 kts 326°
2026-05-05 05:07 -37.61569 144.64099 8673 ft 284 kts 339°
2026-05-05 05:07 -37.59646 144.63385 9627 ft 292 kts 341°
2026-05-05 05:08 -37.57660 144.62696 10424 ft 305 kts 343°
2026-05-05 05:08 -37.55488 144.62430 10826 ft 334 kts
2026-05-05 05:08 -37.53248 144.63406 11423 ft 352 kts 32°
2026-05-05 05:08 -37.51458 144.65535 12251 ft 358 kts 52°
2026-05-05 05:09 -37.49949 144.68061 13096 ft 364 kts 55°
2026-05-05 05:09 -37.48454 144.70659 13944 ft 369 kts 55°
2026-05-05 05:09 -37.47037 144.73365 14740 ft 372 kts 60°
2026-05-05 05:09 -37.45734 144.76191 15506 ft 376 kts 62°
2026-05-05 05:10 -37.44435 144.79069 16269 ft 379 kts 62°
2026-05-05 05:10 -37.43124 144.81961 17025 ft 383 kts 62°
2026-05-05 05:10 -37.41810 144.84846 17760 ft 387 kts 61°
2026-05-05 05:10 -37.40465 144.87787 18487 ft 390 kts 61°
2026-05-05 05:11 -37.39103 144.90756 19121 ft 394 kts 61°
2026-05-05 05:11 -37.37726 144.93754 19743 ft 398 kts 61°
2026-05-05 05:11 -37.36334 144.96778 20372 ft 401 kts 61°
2026-05-05 05:11 -37.34930 144.99824 20981 ft 404 kts 61°
2026-05-05 05:12 -37.33514 145.02895 21545 ft 409 kts 62°
2026-05-05 05:12 -37.32082 145.05996 22125 ft 412 kts 62°
2026-05-05 05:12 -37.30636 145.09125 22702 ft 416 kts 62°
2026-05-05 05:12 -37.29194 145.12243 23278 ft 420 kts 62°
2026-05-05 05:13 -37.27721 145.15422 23825 ft 423 kts 62°
2026-05-05 05:13 -37.26235 145.18629 24280 ft 427 kts 62°
2026-05-05 05:13 -37.24736 145.21860 24744 ft 430 kts 62°
2026-05-05 05:13 -37.23226 145.25112 25219 ft 433 kts 61°
2026-05-05 05:14 -37.21703 145.28385 25673 ft 436 kts 61°
2026-05-05 05:14 -37.20167 145.31687 26098 ft 440 kts 61°
2026-05-05 05:14 -37.18621 145.35005 26543 ft 442 kts 61°
2026-05-05 05:14 -37.17081 145.38291 26983 ft 445 kts 60°
2026-05-05 05:15 -37.15382 145.41561 27411 ft 449 kts 57°
2026-05-05 05:15 -37.13596 145.44781 27862 ft 451 kts 56°
2026-05-05 05:15 -37.11760 145.47984 28314 ft 453 kts 55°
2026-05-05 05:15 -37.09898 145.51187 28731 ft 456 kts 55°
2026-05-05 05:16 -37.08019 145.54413 29134 ft 460 kts 55°
2026-05-05 05:16 -37.06130 145.57661 29529 ft 463 kts 55°
2026-05-05 05:16 -37.04235 145.60931 29929 ft 465 kts 55°
2026-05-05 05:16 -37.02361 145.64173 30310 ft 468 kts 55°
2026-05-05 05:17 -37.00450 145.67482 30647 ft 470 kts 55°
2026-05-05 05:17 -36.98530 145.70809 30983 ft 473 kts 55°
2026-05-05 05:17 -36.96600 145.74149 31293 ft 475 kts 54°
2026-05-05 05:17 -36.94657 145.77509 31607 ft 478 kts 54°
2026-05-05 05:18 -36.92704 145.80884 31927 ft 481 kts 54°
2026-05-05 05:18 -36.90739 145.84274 32329 ft 481 kts 54°
2026-05-05 05:18 -36.88777 145.87658 32770 ft 480 kts 54°
2026-05-05 05:18 -36.86848 145.90979 33178 ft 480 kts 53°
2026-05-05 05:19 -36.84887 145.94352 33583 ft 479 kts 53°
2026-05-05 05:19 -36.82927 145.97722 34008 ft 479 kts 53°
2026-05-05 05:19 -36.80972 146.01078 34380 ft 478 kts 53°
2026-05-05 05:19 -36.79017 146.04431 34724 ft 478 kts 53°
2026-05-05 05:20 -36.77059 146.07786 35066 ft 477 kts 52°
2026-05-05 05:20 -36.75111 146.11122 35389 ft 477 kts 52°
2026-05-05 05:20 -36.73158 146.14463 35718 ft 476 kts 52°
2026-05-05 05:20 -36.71204 146.17801 36031 ft 476 kts 52°
2026-05-05 05:21 -36.69277 146.21089 36334 ft 476 kts 51°
2026-05-05 05:21 -36.67322 146.24423 36638 ft 476 kts 51°
2026-05-05 05:21 -36.65367 146.27752 36939 ft 476 kts 51°
2026-05-05 05:21 -36.63411 146.31079 37244 ft 476 kts 51°
2026-05-05 05:22 -36.61460 146.34396 37524 ft 476 kts 50°
2026-05-05 05:22 -36.59508 146.37713 37821 ft 476 kts 50°
2026-05-05 05:22 -36.57552 146.41032 38139 ft 475 kts 50°
2026-05-05 05:22 -36.55623 146.44302 38426 ft 475 kts 50°
2026-05-05 05:23 -36.53670 146.47608 38722 ft 475 kts 50°
2026-05-05 05:23 -36.51716 146.50914 38974 ft 474 kts 49°
2026-05-05 05:23 -36.49763 146.54216 39146 ft 476 kts 49°
2026-05-05 05:24 -36.45795 146.60904 39185 ft 485 kts 49°
2026-05-05 05:24 -36.41786 146.67657 39184 ft 485 kts 49°